Location: Saluda
(35.2377°N, 82.3468°W)
Time: 15:21:46
(UTC+00:00)

SR - Pass Details

Date: 09 October 2022
Orbit: 577 x 875 km, 66.7° (Epoch: 28 November)

Event Time Altitude Azimuth Distance (km) Brightness Sun altitude
Rises 23:54:11 0° 189° (S) 3,387 ? -11.2°
Reaches altitude 10° 23:56:41 10° 183° (S) 2,481 ? -11.7°
Maximum altitude 00:02:13 47° 111° (ESE) 1,138 ? -12.8°
Drops below altitude 10° 00:07:50 10° 39° (NE) 2,523 ? -14.0°
Sets 00:10:23 0° 34° (NE) 3,451 ? -14.5°
